Time,TemperatureF,DewpointF,PressureIn,WindDirection,WindDirectionDegrees,WindSpeedMPH,WindSpeedGustMPH,Humidity,HourlyPrecipIn,Conditions,Clouds,dailyrainin,SoftwareType,DateUTC
2013-09-09 00:06:00,67.2,64.0,29.99,SE,128,3.0,8.0,88,0.00,,,0.00,weatherlink.com 1.10,2013-09-09 04:06:00,
2013-09-09 00:21:00,67.1,64.0,29.99,East,84,5.0,8.0,88,0.00,,,0.00,weatherlink.com 1.10,2013-09-09 04:21:00,
2013-09-09 00:36:00,67.0,63.0,30.00,East,84,3.0,8.0,88,0.00,,,0.00,weatherlink.com 1.10,2013-09-09 04:36:00,
2013-09-09 00:52:00,66.9,63.0,29.99,ENE,74,4.0,7.0,88,0.00,,,0.00,weatherlink.com 1.10,2013-09-09 04:52:00,
2013-09-09 01:07:00,66.8,63.0,29.99,East,80,6.0,8.0,88,0.00,,,0.00,weatherlink.com 1.10,2013-09-09 05:07:00,
2013-09-09 01:22:00,66.6,63.0,29.99,East,90,5.0,7.0,89,0.00,,,0.00,weatherlink.com 1.10,2013-09-09 05:22:00,
2013-09-09 01:37:00,66.3,63.0,30.00,ESE,113,4.0,7.0,89,0.00,,,0.00,weatherlink.com 1.10,2013-09-09 05:37:00,
2013-09-09 01:54:00,66.1,63.0,30.00,East,86,5.0,7.0,89,0.00,,,0.00,weatherlink.com 1.10,2013-09-09 05:54:00,
2013-09-09 02:07:00,66.1,63.0,30.00,ESE,102,4.0,6.0,89,0.00,,,0.00,weatherlink.com 1.10,2013-09-09 06:07:00,
2013-09-09 02:24:00,66.1,63.0,30.00,SE,125,2.0,6.0,89,0.00,,,0.00,weatherlink.com 1.10,2013-09-09 06:24:00,
2013-09-09 02:39:00,65.9,62.0,29.99,East,100,5.0,7.0,88,0.00,,,0.00,weatherlink.com 1.10,2013-09-09 06:39:00,
2013-09-09 02:54:00,65.6,62.0,29.99,ESE,108,4.0,6.0,88,0.00,,,0.00,weatherlink.com 1.10,2013-09-09 06:54:00,
2013-09-09 03:09:00,65.3,62.0,29.99,East,80,3.0,5.0,89,0.00,,,0.00,weatherlink.com 1.10,2013-09-09 07:09:00,
2013-09-09 03:24:00,64.9,62.0,29.98,ESE,117,1.0,4.0,89,0.00,,,0.00,weatherlink.com 1.10,2013-09-09 07:24:00,
2013-09-09 03:39:00,64.7,62.0,29.98,ESE,103,3.0,5.0,89,0.00,,,0.00,weatherlink.com 1.10,2013-09-09 07:39:00,
2013-09-09 03:55:00,64.6,61.0,29.98,East,88,1.0,5.0,89,0.00,,,0.00,weatherlink.com 1.10,2013-09-09 07:55:00,
2013-09-09 04:10:00,64.3,61.0,29.98,East,91,1.0,3.0,90,0.00,,,0.00,weatherlink.com 1.10,2013-09-09 08:10:00,
2013-09-09 04:25:00,64.0,61.0,29.98,East,91,0.0,3.0,90,0.00,,,0.00,weatherlink.com 1.10,2013-09-09 08:25:00,
2013-09-09 04:40:00,63.9,61.0,29.98,East,91,2.0,3.0,90,0.00,,,0.00,weatherlink.com 1.10,2013-09-09 08:40:00,
2013-09-09 04:55:00,63.5,61.0,29.98,East,91,2.0,2.0,91,0.00,,,0.00,weatherlink.com 1.10,2013-09-09 08:55:00,
2013-09-09 05:10:00,63.1,61.0,29.98,East,91,0.0,2.0,91,0.00,,,0.00,weatherlink.com 1.10,2013-09-09 09:10:00,
2013-09-09 05:26:00,62.9,61.0,29.97,East,88,2.0,3.0,92,0.00,,,0.00,weatherlink.com 1.10,2013-09-09 09:26:00,
2013-09-09 05:41:00,62.7,60.0,29.97,ESE,105,1.0,3.0,92,0.00,,,0.00,weatherlink.com 1.10,2013-09-09 09:41:00,
2013-09-09 05:56:00,62.6,60.0,29.96,ESE,105,2.0,3.0,92,0.00,,,0.00,weatherlink.com 1.10,2013-09-09 09:56:00,
2013-09-09 06:12:00,62.4,60.0,29.96,ESE,105,0.0,2.0,93,0.00,,,0.00,weatherlink.com 1.10,2013-09-09 10:12:00,
2013-09-09 06:27:00,62.3,60.0,29.96,ESE,105,1.0,3.0,93,0.00,,,0.00,weatherlink.com 1.10,2013-09-09 10:27:00,
2013-09-09 06:42:00,62.4,61.0,29.96,SE,125,0.0,4.0,94,0.00,,,0.00,weatherlink.com 1.10,2013-09-09 10:42:00,
2013-09-09 06:57:00,62.6,61.0,29.96,SE,125,1.0,2.0,94,0.00,,,0.00,weatherlink.com 1.10,2013-09-09 10:57:00,
2013-09-09 07:12:00,62.8,61.0,29.96,SE,125,0.0,0.0,95,0.00,,,0.00,weatherlink.com 1.10,2013-09-09 11:12:00,
2013-09-09 07:29:00,63.1,62.0,29.97,SE,125,0.0,0.0,95,0.00,,,0.00,weatherlink.com 1.10,2013-09-09 11:29:00,
2013-09-09 07:44:00,63.4,62.0,29.98,SE,125,0.0,0.0,95,0.00,,,0.00,weatherlink.com 1.10,2013-09-09 11:44:00,
2013-09-09 07:59:00,63.5,62.0,29.98,SE,124,2.0,2.0,95,0.00,,,0.00,weatherlink.com 1.10,2013-09-09 11:59:00,
2013-09-09 08:14:00,63.8,62.0,29.98,SE,124,0.0,2.0,95,0.00,,,0.00,weatherlink.com 1.10,2013-09-09 12:14:00,
2013-09-09 08:30:00,64.2,63.0,29.98,SE,124,0.0,0.0,95,0.00,,,0.00,weatherlink.com 1.10,2013-09-09 12:30:00,
2013-09-09 08:45:00,64.7,63.0,29.98,SE,124,0.0,0.0,95,0.00,,,0.00,weatherlink.com 1.10,2013-09-09 12:45:00,
2013-09-09 09:00:00,65.4,64.0,29.98,SE,124,0.0,0.0,95,0.00,,,0.00,weatherlink.com 1.10,2013-09-09 13:00:00,
2013-09-09 09:15:00,66.2,65.0,29.98,SE,124,1.0,3.0,95,0.00,,,0.00,weatherlink.com 1.10,2013-09-09 13:15:00,
2013-09-09 09:30:00,67.0,65.0,29.99,ESE,120,0.0,2.0,94,0.00,,,0.00,weatherlink.com 1.10,2013-09-09 13:30:00,
2013-09-09 09:45:00,67.7,66.0,29.99,ESE,120,1.0,3.0,94,0.00,,,0.00,weatherlink.com 1.10,2013-09-09 13:45:00,
2013-09-09 10:00:00,68.7,67.0,29.99,ESE,120,0.0,4.0,94,0.00,,,0.00,weatherlink.com 1.10,2013-09-09 14:00:00,
2013-09-09 10:16:00,69.7,68.0,29.99,ESE,123,0.0,4.0,93,0.00,,,0.00,weatherlink.com 1.10,2013-09-09 14:16:00,